Temperature
7 7 7 6 6 6 6 6 5 5 5 5 5 4 4 4 4 4 4 3 3 3 3 3 3 3 3 3 2 2 2 2 1 2 2 2 2 2 2 2 2 2 3
6 6 6 6 6 6 5 5 5 5 5 4 4 4 4 4 4 3 3 3 3 3 3 2 2 2 2 2 2 2 2 2 1 1 2 2 2 2 2 2 2 2 2
5 5 5 5 5 5 5 5 5 4 4 4 4 3 3 3 3 3 3 3 2 2 2 2 2 2 2 2 2 2 2 1 1 1 1 2 2 2 2 2 2 2 2
5 5 5 5 5 4 4 4 4 4 4 3 3 3 3 2 2 2 2 2 2 2 2 2 2 2 2 2 2 2 1 1 1 1 1 1 1 1 1 1 2 2 2
4 4 4 4 4 4 4 4 4 3 3 3 2 2 2 2 2 2 2 2 2 2 2 2 2 2 2 2 1 1 1 1 1 1 1 1 1 1 1 1 1 1 2
4 4 4 4 3 3 3 3 3 3 3 2 2 2 2 1 1 1 1 1 1 1 2 2 2 2 2 1 1 1 1 1 1 1 1 1 1 1 1 1 1 1 1
3 3 3 3 3 3 3 2 2 2 2 2 1 1 1 1 1 1 1 1 1 1 1 1 1 1 1 1 1 1 1 1 1 1 1 1 1 1 1 1 1 1 1
3 3 3 2 2 2 2 2 2 1 1 1 1 1 1 1 1 1 1 0 0 1 1 1 1 1 1 1 1 0 0 1 1 1 1 1 1 1 1 1 1 1 1
2 2 2 2 2 1 1 1 1 1 1 1 1 1 1 1 1 0 0 0 0 0 1 1 1 1 1 0 0 0 0 0 1 0 0 0 1 1 1 1 1 1 0
1 1 1 1 1 1 1 1 1 0 0 0 0 0 0 0 0 0 -0 -0 -0 -0 -0 0 0 0 -0 -0 -0 -0 -0 0 0 0 0 0 0 1 1 1 1 0 0
1 1 1 0 0 0 0 0 -0 -0 -0 -0 -0 -0 -0 -0 -0 -0 -1 -1 -1 -1 -1 -1 -1 -1 -1 -1 -1 -0 -0 -0 -0 -0 0 0 0 0 1 0 0 0 0
0 0 0 0 -0 -0 -0 -0 -0 -1 -1 -1 -1 -1 -1 -1 -1 -1 -1 -1 -1 -1 -1 -1 -1 -1 -1 -1 -1 -1 -1 -1 -1 -0 -0 -0 -0 0 0 0 0 0 0
-0 -0 -0 -0 -1 -1 -1 -1 -1 -1 -1 -1 -1 -1 -1 -1 -1 -1 -1 -1 -2 -2 -2 -2 -2 -2 -2 -2 -1 -1 -1 -1 -1 -1 -1 -1 -1 -0 -0 -0 -0 -0 0
-1 -1 -1 -1 -1 -1 -1 -2 -2 -2 -2 -2 -2 -2 -2 -2 -2 -2 -2 -2 -2 -2 -2 -2 -2 -2 -2 -2 -2 -2 -1 -1 -1 -1 -1 -1 -1 -1 -1 -1 -0 -0 -0
-2 -2 -2 -2 -2 -2 -2 -2 -2 -2 -3 -3 -3 -3 -3 -2 -2 -2 -2 -2 -2 -2 -2 -2 -2 -2 -2 -2 -2 -2 -2 -2 -1 -1 -1 -1 -1 -1 -1 -1 -1 -1 -0
-3 -3 -3 -3 -3 -3 -3 -3 -3 -3 -3 -3 -3 -3 -3 -3 -3 -3 -3 -2 -2 -2 -2 -3 -3 -3 -3 -3 -2 -2 -2 -2 -2 -1 -1 -1 -1 -1 -1 -1 -1 -1 -1
-3 -3 -3 -3 -3 -4 -4 -4 -3 -3 -3 -3 -3 -3 -3 -3 -3 -3 -3 -3 -3 -3 -3 -3 -3 -3 -3 -3 -3 -3 -2 -2 -2 -2 -1 -1 -1 -1 -1 -1 -1 -1 -1
-4 -4 -4 -4 -4 -5 -4 -4 -4 -4 -4 -4 -4 -4 -4 -3 -3 -3 -3 -3 -3 -3 -3 -3 -3 -3 -3 -3 -3 -3 -2 -2 -2 -2 -2 -2 -2 -2 -1 -1 -1 -1 -1
-5 -5 -5 -5 -5 -5 -5 -5 -5 -5 -5 -4 -4 -4 -4 -4 -4 -4 -4 -4 -4 -4 -4 -4 -3 -3 -3 -3 -3 -3 -3 -3 -2 -2 -2 -2 -2 -2 -2 -1 -1 -1 -1
-5 -5 -5 -5 -5 -5 -5 -5 -5 -5 -5 -5 -5 -5 -5 -5 -4 -4 -4 -4 -4 -4 -4 -4 -4 -4 -3 -3 -3 -3 -3 -3 -3 -2 -2 -2 -2 -2 -2 -1 -1 -1 -1
-6 -6 -6 -6 -6 -6 -6 -6 -6 -6 -6 -6 -6 -5 -5 -5 -5 -5 -5 -5 -5 -4 -4 -4 -4 -4 -3 -3 -3 -3 -3 -3 -3 -2 -2 -2 -2 -2 -2 -2 -2 -2 -2
-7 -7 -7 -7 -7 -7 -7 -7 -6 -6 -6 -6 -6 -6 -6 -5 -5 -5 -5 -5 -5 -5 -4 -4 -4 -4 -4 -3 -3 -3 -3 -3 -3 -2 -2 -2 -2 -2 -2 -2 -2 -2 -2
-7 -7 -7 -7 -7 -7 -7 -7 -7 -7 -7 -7 -6 -6 -6 -6 -6 -6 -6 -5 -5 -5 -5 -4 -4 -4 -4 -3 -3 -3 -3 -3 -3 -3 -2 -2 -2 -2 -2 -2 -2 -2 -2
-8 -8 -8 -8 -8 -8 -8 -8 -7 -7 -7 -7 -7 -7 -6 -6 -6 -6 -6 -6 -5 -5 -5 -5 -4 -4 -4 -4 -3 -3 -3 -3 -3 -3 -2 -2 -2 -2 -2 -2 -2 -2 -2
-8 -8 -8 -8 -8 -8 -8 -8 -8 -8 -7 -7 -7 -7 -7 -7 -6 -6 -6 -6 -5 -5 -5 -5 -4 -4 -4 -4 -3 -3 -3 -3 -3 -3 -2 -2 -2 -2 -2 -2 -2 -2 -2
-9 -9 -9 -9 -9 -8 -8 -8 -8 -8 -8 -7 -7 -7 -7 -7 -7 -6 -6 -6 -6 -5 -5 -5 -4 -4 -4 -4 -3 -3 -3 -3 -3 -2 -2 -2 -2 -2 -2 -2 -2 -2 -3
Wind_Speed
3 2 2 2 1 1 2 2 2 3 3 4 5 5 6 6 6 6 7 7 8 8 7 8 9 8 7 7 7 7 7 7 11 10 7 7 7 8 8 8 10 10 11
2 2 2 1 1 1 2 2 2 3 3 4 4 5 6 6 6 7 8 7 8 8 8 8 9 8 8 7 7 8 8 8 9 11 9 7 7 7 7 7 9 9 9
2 1 1 1 1 1 2 3 3 3 3 4 4 5 6 6 6 7 7 7 8 8 8 9 9 9 9 8 8 8 8 8 7 8 10 7 7 7 7 8 8 6 9
2 1 0 1 1 2 2 2 3 3 4 4 5 6 6 6 7 7 7 7 8 8 8 9 9 9 10 9 9 9 8 8 8 8 8 7 7 6 5 6 7 5 6
1 0 1 1 1 2 2 2 3 4 5 4 5 6 6 6 6 7 7 8 9 9 9 9 9 11 13 10 9 8 8 7 7 7 7 7 6 5 5 5 6 6 6
1 0 1 1 2 2 2 2 3 4 5 5 5 6 7 7 10 12 10 8 9 9 9 9 9 10 11 13 14 13 11 10 8 8 7 7 8 7 5 6 5 6 6
1 1 1 1 2 2 3 3 4 4 5 5 5 6 7 8 12 13 13 9 8 8 8 8 8 8 10 8 10 12 11 13 12 9 8 9 8 7 6 6 5 5 6
1 2 2 2 2 3 3 3 4 4 4 5 6 7 7 9 13 14 14 9 7 7 7 8 8 8 8 8 7 7 7 7 8 7 6 7 7 6 6 6 5 4 4
2 2 2 2 3 3 3 4 4 4 5 5 6 7 7 9 12 13 12 6 6 7 7 7 7 7 10 10 7 6 7 6 6 7 7 7 8 8 6 3 3 2 4
3 3 3 3 3 4 4 4 4 4 5 6 7 7 7 8 11 12 11 5 5 6 5 6 8 8 10 9 5 5 6 6 5 5 5 6 5 5 5 3 3 2 3
3 3 4 3 3 4 4 4 4 5 5 6 7 7 6 7 9 10 10 5 4 5 4 4 5 10 10 9 8 4 6 6 4 4 3 3 3 2 2 2 2 1 2
3 3 4 4 4 4 4 4 4 4 5 6 6 6 5 5 7 8 9 8 7 4 4 4 5 9 10 10 7 6 8 7 3 2 2 2 2 2 2 3 3 3 2
4 4 4 4 4 4 4 4 4 4 4 5 5 6 5 5 5 9 9 9 9 5 4 6 8 10 9 7 7 8 6 3 2 2 2 2 2 2 2 2 3 4 4
4 4 4 4 4 4 3 3 3 4 4 5 5 6 6 5 5 4 4 5 6 5 5 6 8 9 7 7 6 4 3 2 1 1 1 1 1 1 2 2 2 3 4
4 4 4 4 4 4 4 4 4 4 5 5 5 5 6 6 7 9 7 4 4 4 5 4 3 4 4 3 3 3 2 2 2 1 1 1 1 1 2 2 2 2 3
5 5 4 3 4 4 4 5 7 7 9 10 9 8 7 9 11 11 10 9 9 7 5 3 3 3 3 3 3 3 2 2 2 1 1 1 1 1 2 2 2 3 3
5 5 4 4 4 4 4 5 6 8 9 9 10 10 9 10 10 10 10 9 8 6 4 3 3 3 2 2 2 2 2 2 2 1 1 1 1 2 2 2 2 3 3
5 6 5 4 4 4 4 5 5 5 6 6 7 9 10 9 9 9 9 7 5 4 2 3 2 2 2 2 2 1 1 1 1 1 1 1 1 2 2 2 2 3 3
5 4 4 4 4 4 4 4 4 4 5 5 5 6 8 8 8 9 7 4 3 3 3 3 2 2 1 1 1 1 1 1 1 1 1 2 2 2 2 2 2 4 3
5 9 7 5 4 4 4 4 4 4 4 4 4 4 5 5 4 5 4 4 3 3 3 2 2 2 1 1 1 1 1 1 1 1 1 2 2 2 2 2 2 3 3
5 6 9 6 4 4 4 4 4 4 4 4 4 5 7 4 3 4 4 4 3 3 3 3 2 2 1 1 1 1 1 1 1 1 1 2 2 2 2 2 3 3 4
4 4 4 4 4 4 5 4 4 4 4 4 4 5 7 4 3 3 4 4 4 3 3 2 2 2 1 1 0 0 0 1 1 1 1 1 1 2 2 3 3 4 4
4 4 4 4 4 6 6 4 4 4 4 4 4 4 4 3 3 3 4 4 4 3 3 2 2 2 1 1 1 0 0 0 0 0 1 2 2 2 3 3 4 4 4
3 4 4 4 4 4 4 4 4 4 4 4 4 4 3 3 3 4 4 4 3 3 3 2 2 2 2 2 1 1 1 0 1 1 2 2 2 2 3 3 4 5 5
3 3 3 4 4 4 4 4 4 4 4 4 4 4 3 3 3 3 3 3 4 4 4 3 2 2 2 2 1 1 1 2 2 3 2 2 3 3 4 4 4 5 5
3 3 3 3 4 4 4 4 4 4 4 4 4 3 3 3 3 3 3 3 4 4 4 3 4 3 3 2 1 2 3 3 4 5 4 3 4 4 4 4 6 5 5
Wind_Direction
146 157 163 174 182 194 222 232 239 252 259 268 277 280 281 281 279 279 276 277 277 277 277 276 273 271 266 263 261 259 258 259 275 286 286 289 289 295 300 302 301 297 297
137 145 153 162 179 219 241 254 252 256 260 267 277 282 284 288 287 288 285 281 278 278 276 280 282 280 271 268 266 262 261 258 267 283 290 289 285 286 291 297 301 301 300
117 117 134 172 209 240 253 264 268 268 275 279 279 282 285 286 288 288 288 286 280 277 276 277 280 279 277 275 272 269 267 266 263 272 284 286 288 292 296 296 300 302 305
111 126 180 246 255 261 268 270 275 277 279 280 282 283 285 289 290 290 293 289 284 282 280 277 278 274 271 274 274 268 267 267 267 269 277 283 288 288 287 297 306 309 313
110 130 243 281 299 297 291 290 291 289 288 281 285 288 289 290 287 293 295 291 287 287 285 281 279 277 273 272 276 272 264 263 268 268 273 285 290 291 286 292 301 312 313
75 350 335 338 327 311 297 295 295 290 289 288 286 289 291 292 297 300 300 291 286 283 286 286 284 280 278 280 281 281 273 266 267 266 271 274 282 285 289 296 298 307 307
8 349 352 337 317 307 309 300 286 285 289 290 289 288 287 289 296 298 300 302 289 282 280 284 288 288 289 283 284 285 280 272 265 259 263 266 274 278 278 284 290 295 296
355 348 342 330 311 308 304 294 292 292 291 293 294 292 293 293 299 301 304 301 293 286 280 277 281 284 286 286 286 288 284 279 272 269 262 268 274 272 266 267 272 290 305
349 341 333 325 311 306 300 295 295 300 300 296 294 293 291 295 300 304 307 297 293 294 295 293 288 282 289 294 293 292 297 299 303 296 290 288 288 289 286 287 285 292 306
343 336 325 312 304 300 296 297 298 297 295 298 296 294 290 292 300 308 312 301 296 301 304 305 305 304 301 302 293 289 295 299 307 314 315 311 303 303 308 280 256 262 294
342 333 327 322 309 299 299 303 304 304 302 300 298 296 294 299 308 312 314 312 299 302 309 313 315 319 320 317 313 298 292 299 307 309 312 320 325 332 341 343 331 248 263
343 334 330 326 319 317 310 307 305 306 303 302 304 306 305 308 313 314 317 320 320 311 309 312 314 321 324 324 319 313 314 316 312 315 326 331 337 344 351 359 13 25 17
343 337 329 324 321 316 310 308 311 310 305 305 308 310 315 317 315 317 319 322 328 327 317 319 322 324 326 327 326 323 326 329 324 326 319 317 324 332 352 17 28 37 37
333 324 320 320 317 315 310 306 307 305 304 307 309 311 313 317 320 318 314 315 318 317 314 318 323 326 325 323 326 335 338 327 317 313 303 318 342 358 9 29 34 30 48
328 319 317 315 312 312 310 301 297 286 294 301 298 300 306 307 311 315 317 314 311 305 315 319 329 329 335 333 335 342 350 348 351 353 355 10 9 14 24 35 41 42 61
328 323 318 316 312 311 312 316 316 310 311 308 305 303 300 304 313 320 323 325 325 322 323 321 323 322 320 326 337 347 355 1 359 359 14 13 19 30 45 42 46 67 76
324 319 318 318 315 313 313 313 315 321 321 318 319 319 319 319 320 324 326 330 330 329 325 316 310 310 313 325 336 341 342 348 352 0 17 28 38 51 66 62 62 75 75
321 316 316 309 306 306 306 305 306 310 317 320 324 324 327 329 329 328 327 333 336 334 319 309 305 305 311 324 332 342 352 1 13 14 32 47 63 70 74 74 75 86 89
317 311 308 305 303 303 303 305 307 308 310 315 322 324 327 330 332 334 338 344 334 328 322 316 315 316 321 327 331 351 2 8 13 19 57 62 69 77 79 82 89 90 89
313 312 313 310 308 310 312 311 310 311 314 318 320 322 328 331 340 339 340 340 335 328 323 319 321 320 323 331 358 16 26 31 26 33 69 72 69 77 88 92 99 101 89
309 310 312 310 310 310 311 311 310 312 312 313 315 320 327 333 331 331 334 335 333 328 324 324 327 331 335 7 43 38 36 39 36 51 85 84 76 82 91 96 99 100 99
306 305 305 307 310 311 312 308 307 308 309 310 317 321 325 334 337 335 334 332 332 328 320 319 327 334 338 340 3 110 59 52 43 79 99 97 93 94 99 100 103 105 107
302 303 307 311 310 310 313 314 314 313 314 317 318 323 326 331 333 331 330 331 333 332 331 329 330 338 354 354 350 193 191 236 269 163 125 116 104 105 110 112 116 113 105
306 308 311 312 311 311 311 314 315 315 317 319 321 323 326 328 331 331 334 335 335 335 336 335 333 336 340 352 4 8 6 23 68 106 121 125 117 112 109 109 111 111 107
310 308 308 309 310 310 311 314 318 320 319 319 319 321 326 330 333 334 336 336 335 338 338 339 345 349 349 354 8 29 89 93 97 101 100 112 112 112 111 111 111 108 103
310 307 305 305 307 310 314 316 315 315 315 315 319 323 324 326 330 336 339 340 341 343 341 348 358 0 359 6 39 88 101 97 97 97 97 110 113 112 111 109 110 108 107
Height
1465 1467 1468 1469 1470 1470 1471 1471 1470 1470 1469 1467 1466 1464 1463 1461 1460 1458 1455 1454 1452 1449 1448 1446 1443 1442 1440 1438 1437 1435 1433 1431 1426 1419 1419 1417 1414 1411 1408 1406 1403 1399 1396
1462 1464 1465 1466 1466 1466 1467 1467 1466 1465 1464 1463 1461 1460 1458 1456 1454 1452 1450 1448 1446 1444 1442 1440 1437 1436 1434 1432 1431 1429 1427 1425 1423 1417 1413 1412 1410 1407 1404 1401 1398 1395 1393
1459 1460 1461 1462 1462 1463 1463 1462 1462 1461 1460 1458 1457 1455 1453 1451 1449 1447 1445 1442 1441 1439 1437 1434 1432 1430 1428 1427 1425 1423 1421 1419 1417 1414 1409 1407 1405 1403 1400 1397 1394 1391 1389
1457 1458 1458 1459 1459 1459 1458 1458 1457 1456 1455 1453 1452 1450 1448 1446 1444 1442 1440 1437 1435 1433 1431 1429 1427 1425 1423 1421 1419 1417 1416 1414 1412 1409 1405 1403 1401 1399 1396 1393 1389 1387 1384
1454 1455 1455 1455 1455 1455 1454 1453 1453 1452 1450 1449 1447 1445 1443 1441 1439 1437 1435 1432 1430 1428 1426 1424 1422 1420 1418 1416 1414 1412 1410 1408 1406 1404 1401 1398 1396 1394 1392 1390 1387 1384 1381
1452 1452 1452 1452 1452 1451 1450 1449 1448 1447 1445 1444 1442 1440 1438 1436 1434 1432 1430 1427 1425 1422 1420 1418 1416 1414 1412 1411 1409 1407 1406 1404 1401 1399 1396 1394 1392 1391 1389 1387 1384 1381 1377
1449 1449 1449 1448 1448 1447 1446 1445 1444 1442 1441 1439 1437 1435 1433 1432 1430 1427 1425 1422 1419 1417 1415 1413 1411 1409 1407 1405 1403 1401 1400 1398 1397 1396 1392 1390 1388 1387 1385 1383 1381 1379 1376
1446 1446 1446 1445 1444 1443 1442 1441 1440 1438 1436 1434 1433 1431 1429 1427 1425 1422 1420 1417 1414 1412 1410 1408 1406 1403 1402 1400 1398 1396 1394 1392 1391 1390 1389 1387 1385 1383 1382 1380 1378 1376 1373
1443 1443 1443 1442 1441 1440 1438 1437 1436 1434 1432 1430 1429 1427 1424 1422 1420 1417 1415 1412 1409 1406 1405 1403 1401 1399 1397 1396 1394 1391 1389 1387 1386 1385 1384 1382 1381 1379 1378 1377 1375 1373 1370
1441 1440 1440 1439 1438 1436 1435 1434 1432 1430 1428 1426 1424 1423 1420 1418 1415 1413 1410 1407 1405 1402 1400 1398 1397 1395 1393 1392 1390 1387 1385 1383 1382 1380 1379 1378 1376 1375 1374 1373 1372 1371 1369
1438 1438 1437 1436 1435 1433 1432 1430 1429 1427 1425 1423 1421 1419 1416 1414 1411 1409 1406 1404 1402 1399 1396 1394 1393 1391 1389 1388 1386 1384 1382 1381 1379 1377 1375 1374 1373 1372 1371 1370 1370 1369 1368
1436 1435 1434 1433 1431 1430 1428 1426 1425 1423 1421 1419 1417 1414 1413 1410 1408 1405 1403 1401 1399 1396 1394 1392 1390 1388 1386 1384 1382 1381 1379 1378 1376 1375 1373 1372 1371 1370 1369 1369 1368 1368 1367
1433 1432 1431 1429 1428 1426 1425 1423 1421 1419 1417 1415 1413 1411 1408 1406 1404 1402 1400 1398 1395 1394 1391 1389 1387 1385 1383 1381 1380 1378 1377 1375 1374 1373 1371 1370 1370 1369 1369 1368 1367 1367 1366
1430 1429 1427 1426 1424 1423 1421 1420 1418 1416 1414 1412 1410 1408 1405 1403 1401 1399 1396 1394 1392 1390 1388 1386 1385 1383 1381 1379 1377 1376 1375 1374 1373 1372 1371 1370 1370 1369 1369 1368 1368 1367 1367
1427 1425 1424 1422 1421 1419 1418 1416 1415 1413 1412 1410 1408 1406 1403 1400 1398 1396 1394 1391 1389 1388 1386 1384 1381 1380 1378 1377 1376 1374 1374 1373 1372 1371 1370 1370 1369 1369 1369 1369 1368 1368 1368
1424 1422 1421 1419 1417 1416 1414 1412 1411 1410 1408 1407 1405 1403 1400 1398 1396 1393 1391 1389 1387 1385 1383 1381 1379 1378 1377 1375 1374 1373 1373 1372 1371 1370 1370 1370 1369 1369 1369 1369 1369 1369 1369
1421 1419 1418 1416 1414 1412 1411 1409 1406 1405 1404 1403 1401 1399 1397 1395 1392 1390 1388 1386 1384 1382 1380 1378 1377 1376 1375 1375 1374 1373 1372 1371 1371 1370 1370 1369 1369 1369 1370 1370 1370 1370 1371
1418 1416 1415 1413 1411 1410 1408 1406 1404 1402 1399 1397 1397 1395 1393 1391 1389 1387 1385 1383 1381 1379 1378 1377 1375 1375 1374 1374 1373 1372 1372 1371 1370 1370 1370 1370 1370 1370 1370 1371 1371 1372 1372
1415 1413 1411 1410 1408 1407 1405 1403 1401 1399 1397 1395 1393 1391 1390 1388 1386 1384 1383 1380 1378 1377 1376 1375 1374 1374 1373 1373 1372 1372 1371 1371 1370 1370 1370 1370 1371 1371 1371 1372 1373 1374 1374
1411 1409 1408 1406 1405 1403 1402 1400 1398 1396 1394 1392 1390 1388 1387 1385 1383 1381 1380 1379 1377 1376 1375 1374 1373 1373 1372 1372 1371 1371 1371 1370 1370 1370 1371 1371 1372 1372 1373 1374 1374 1375 1375
1407 1406 1404 1403 1401 1400 1399 1397 1395 1393 1392 1390 1388 1387 1386 1383 1381 1380 1378 1377 1376 1375 1374 1373 1372 1372 1371 1371 1370 1370 1370 1370 1371 1371 1371 1372 1372 1373 1374 1375 1375 1376 1377
1404 1402 1401 1399 1398 1397 1396 1394 1393 1391 1389 1388 1386 1385 1383 1382 1380 1378 1377 1376 1375 1374 1373 1372 1371 1371 1370 1370 1370 1370 1370 1370 1371 1371 1372 1372 1373 1374 1375 1376 1376 1377 1378
1400 1399 1397 1396 1395 1394 1393 1391 1390 1388 1387 1386 1384 1383 1381 1380 1378 1377 1376 1374 1373 1372 1371 1371 1370 1369 1369 1369 1369 1370 1370 1371 1371 1372 1372 1373 1374 1375 1376 1377 1378 1379 1380
1397 1395 1394 1393 1392 1391 1390 1389 1387 1386 1385 1384 1382 1381 1380 1378 1377 1376 1374 1373 1372 1371 1370 1370 1369 1368 1368 1369 1369 1370 1371 1371 1372 1372 1373 1374 1375 1376 1377 1378 1379 1380 1381
1394 1393 1392 1391 1390 1389 1387 1386 1385 1384 1383 1382 1381 1380 1378 1377 1376 1375 1373 1372 1371 1370 1370 1369 1369 1368 1368 1369 1369 1370 1371 1371 1372 1373 1374 1375 1376 1377 1378 1379 1381 1382 1383
1391 1390 1389 1388 1387 1386 1385 1384 1383 1382 1382 1381 1380 1379 1377 1376 1375 1374 1373 1372 1371 1370 1370 1369 1369 1369 1369 1369 1370 1370 1371 1372 1373 1374 1375 1376 1377 1378 1380 1381 1382 1383 1385